Skagway, AK

10:07 PM AKDT on June 26, 2017 (GMT -0800)
Skagway

Weather History for PAGY - November, 2014

Change the Weather History Date:

Saturday, November 1, 2014

  Actual Average Record
Temperature  
Mean Temperature 42 °F -  
Max Temperature 46 °F 40 °F 54 °F (1969)
Min Temperature 37 °F 31 °F 17 °F (1984)
Degree Days  
Heating Degree Days 24    
Moisture  
Dew Point 36 °F    
Average Humidity 87    
Maximum Humidity 93    
Minimum Humidity 71    
Precipitation  
Precipitation 0.31 in - - ()
Sea Level Pressure  
Sea Level Pressure 29.40 in    
Wind  
Wind Speed 2 mph (SSW)    
Max Wind Speed 21 mph    
Max Gust Speed 28 mph    
Visibility 9 miles    
Events Rain    
Averages and records for this station are not official NWS values.
T = Trace of Precipitation, MM = Missing Value Source: NWS Daily Summary

Daily Weather History Graph

Daily Weather History Graph

Search for Another Location

Airport or City:

Trip Planner

Search our weather history database for the weather conditions in past years. The results will help you decide how hot, cold, wet, or windy it might be!

Date:

Astronomy

Nov. 01, 2014 Rise Set
Actual Time 8:21 AM AKDT 5:07 PM AKDT
Civil Twilight 7:37 AM AKDT 5:51 PM AKDT
Nautical Twilight 6:48 AM AKDT 6:39 PM AKDT
Astronomical Twilight 6:01 AM AKDT 7:27 PM AKDT
Moon 3:21 PM AKDT (11/1) 1:00 AM AKDT (11/1)
Length of Visible Light 10h 14m
Length of Day
8h 45m
Waxing Gibbous, 69% of the Moon is Illuminated
Nov 1
Waxing Gibbous
Nov 6
Full
Nov 14
Last Quarter
Nov 22
New
Nov 29
First Quarter

Hourly Weather History & Observations

Time (AKDT) Temp. Windchill Dew Point Humidity Pressure Visibility Wind Dir Wind Speed Gust Speed Precip Events Conditions
12:53 AM 39.9 °F - 36.0 °F 86% 29.45 in 10.0 mi Calm Calm - 0.00 in Rain Light Rain
1:49 AM 39.2 °F - 37.4 °F 93% 29.43 in 10.0 mi Calm Calm - 0.01 in Rain Light Rain
1:53 AM 39.9 °F - 37.0 °F 89% 29.43 in 10.0 mi Calm Calm - 0.01 in Rain Light Rain
2:07 AM 39.9 °F - 37.0 °F 89% 29.41 in 10.0 mi Calm Calm - 0.01 in Rain Light Rain
2:16 AM 39.9 °F - 37.0 °F 89% 29.42 in 10.0 mi Calm Calm - 0.01 in Rain Light Rain
2:53 AM 39.0 °F - 36.0 °F 89% 29.41 in 8.0 mi Calm Calm - 0.03 in Rain Light Rain
3:18 AM 39.0 °F - 36.0 °F 89% 29.40 in 10.0 mi Calm Calm - 0.00 in Rain Light Rain
3:53 AM 37.9 °F - 35.1 °F 89% 29.40 in 10.0 mi Calm Calm - 0.01 in Rain Light Rain
4:53 AM 37.9 °F - 35.1 °F 89% 29.40 in 10.0 mi Calm Calm - 0.02 in Rain Light Rain
5:38 AM 37.9 °F - 36.0 °F 93% 29.40 in 8.0 mi Calm Calm - 0.02 in Rain Light Rain
5:53 AM 37.9 °F - 36.0 °F 93% 29.40 in 6.0 mi Calm Calm - 0.02 in Rain Light Rain
6:44 AM 37.9 °F - 35.1 °F 89% 29.38 in 6.0 mi Calm Calm - 0.02 in Rain Light Rain
6:53 AM 37.9 °F - 35.1 °F 89% 29.39 in 6.0 mi Calm Calm - 0.02 in Rain Light Rain
7:51 AM 37.4 °F - 35.6 °F 93% 29.39 in 6.0 mi Calm Calm - 0.05 in Rain Light Rain
7:53 AM 37.0 °F - 35.1 °F 93% 29.39 in 7.0 mi Calm Calm - 0.05 in Rain Light Rain
8:48 AM 37.4 °F - 33.8 °F 87% 29.39 in 8.0 mi Calm Calm - 0.03 in Rain Light Rain
8:53 AM 37.0 °F - 34.0 °F 89% 29.39 in 8.0 mi Calm Calm - 0.03 in Rain Light Rain
9:41 AM 37.0 °F - 35.1 °F 93% 29.38 in 6.0 mi Calm Calm - 0.02 in Rain Light Rain
9:53 AM 37.0 °F - 35.1 °F 93% 29.40 in 2.5 mi Calm Calm - 0.03 in Rain Light Rain
10:03 AM 37.0 °F - 35.1 °F 93% 29.40 in 7.0 mi Calm Calm - 0.01 in Rain Light Rain
10:53 AM 37.0 °F - 35.1 °F 93% 29.41 in 6.0 mi Calm Calm - 0.04 in Rain Light Rain
11:12 AM 37.0 °F - 35.1 °F 93% 29.41 in 10.0 mi Calm Calm - 0.00 in Rain Light Rain
11:53 AM 37.9 °F - 35.1 °F 89% 29.42 in 10.0 mi Calm Calm - 0.01 in Rain Light Rain
12:15 PM 37.9 °F - 34.0 °F 86% 29.41 in 10.0 mi Calm Calm - 0.00 in Rain Light Rain
12:53 PM 37.9 °F 35.5 °F 35.1 °F 89% 29.40 in 10.0 mi North 3.5 mph - 0.00 in Rain Light Rain
1:53 PM 39.0 °F 34.8 °F 36.0 °F 89% 29.40 in 10.0 mi Variable 5.8 mph - 0.01 in Rain Light Rain
2:23 PM 39.0 °F - 36.0 °F 89% 29.40 in 9.0 mi Calm Calm - 0.01 in Rain Light Rain
2:53 PM 39.9 °F 37.8 °F 37.0 °F 89% 29.40 in 10.0 mi Variable 3.5 mph - 0.01 in Rain Light Rain
3:53 PM 41.0 °F 35.2 °F 37.0 °F 86% 29.39 in 10.0 mi NE 9.2 mph - 0.00 in   Overcast
4:53 PM 42.1 °F 37.1 °F 37.9 °F 85% 29.40 in 10.0 mi SW 8.1 mph - 0.01 in Rain Light Rain
5:05 PM 44.1 °F 35.7 °F 37.9 °F 79% 29.36 in 10.0 mi SSW 20.7 mph 26.5 mph 0.00 in   Overcast
5:14 PM 44.1 °F 37.1 °F 37.9 °F 79% 29.39 in 10.0 mi SSW 15.0 mph 25.3 mph 0.00 in   Overcast
5:53 PM 44.1 °F 36.8 °F 37.9 °F 79% 29.38 in 10.0 mi SSW 16.1 mph 25.3 mph 0.00 in Rain Light Rain
6:53 PM 44.1 °F 40.1 °F 37.0 °F 76% 29.40 in 10.0 mi SSW 6.9 mph - 0.00 in   Mostly Cloudy
7:53 PM 45.0 °F 37.9 °F 37.0 °F 74% 29.40 in 10.0 mi SSW 16.1 mph 27.6 mph N/A   Overcast
8:53 PM 46.0 °F 43.9 °F 37.0 °F 71% 29.39 in 10.0 mi Variable 4.6 mph - N/A   Mostly Cloudy
9:53 PM 45.0 °F 39.3 °F 37.9 °F 76% 29.40 in 10.0 mi South 11.5 mph 25.3 mph 0.00 in Rain Light Rain
10:53 PM 42.1 °F 38.4 °F 37.0 °F 82% 29.40 in 10.0 mi ENE 5.8 mph - 0.01 in   Overcast
11:00 PM 42.1 °F 37.7 °F 37.0 °F 82% 29.39 in 10.0 mi Variable 6.9 mph - N/A   Overcast
11:53 PM 42.1 °F - 37.9 °F 85% 29.41 in 7.0 mi Calm Calm - 0.00 in Rain Light Rain